This is the latest recevied weather packets stored in our database for station/object KK4WXG. If no packets are shown the sender has not sent any weather packets the latest 10 day(s).
| Time | Temp. | Humidity | Pressure | Rain* | Wind** | Luminosity | Snow |
|---|---|---|---|---|---|---|---|
| 1778019741 | 26.67° C | 29% | 1008.3 hPa | 0 mm | - | 264 W/m² | - |
| 1778019439 | 26.11° C | 31% | 1008.3 hPa | 0 mm | - | 148 W/m² | - |
| 1778019135 | 26.11° C | 29% | 1008.2 hPa | 0 mm | - | 121 W/m² | - |
| 1778018832 | 26.67° C | 29% | 1008.2 hPa | 0 mm | - | 129 W/m² | - |
| 1778018530 | 26.67° C | 29% | 1008.4 hPa | 0 mm | - | 147 W/m² | - |
| 1778018228 | 26.67° C | 31% | 1008.2 hPa | 0 mm | - | 203 W/m² | - |
| 1778017926 | 26.67° C | 30% | 1008.1 hPa | 0 mm | - | 207 W/m² | - |
| 1778017623 | 26.67° C | 30% | 1008.3 hPa | 0 mm | - | 232 W/m² | - |
| 1778017320 | 26.67° C | 30% | 1008.4 hPa | 0 mm | - | 232 W/m² | - |
| 1778017018 | 26.67° C | 31% | 1008.3 hPa | 0 mm | - | 366 W/m² | - |
| 1778016714 | 26.67° C | 31% | 1008.3 hPa | 0 mm | - | 384 W/m² | - |
| 1778016410 | 26.67° C | 32% | 1008.3 hPa | 0 mm | - | 242 W/m² | - |
| 1778016108 | 26.67° C | 32% | 1008.1 hPa | 0 mm | - | 281 W/m² | - |
| 1778015805 | 26.67° C | 31% | 1008.1 hPa | 0 mm | - | 216 W/m² | - |
| 1778015502 | 26.67° C | 30% | 1008.1 hPa | 0 mm | - | 220 W/m² | - |
| 1778015199 | 26.67° C | 31% | 1008.1 hPa | 0 mm | - | 244 W/m² | - |
| 1778014895 | 26.67° C | 33% | 1008.2 hPa | 0 mm | - | 294 W/m² | - |
| 1778014593 | 26.67° C | 30% | 1008.3 hPa | 0 mm | - | 301 W/m² | - |
| 1778014291 | 27.22° C | 33% | 1008.3 hPa | 0 mm | - | 299 W/m² | - |
| 1778013987 | 27.22° C | 32% | 1008.2 hPa | 0 mm | - | 420 W/m² | - |
| 1778013686 | 27.22° C | 33% | 1008.2 hPa | 0 mm | - | 430 W/m² | - |
| 1778013382 | 27.22° C | 32% | 1008.1 hPa | 0 mm | - | 359 W/m² | - |
| 1778013079 | 27.22° C | 33% | 1008.1 hPa | 0 mm | - | 373 W/m² | - |
| 1778012775 | 27.22° C | 32% | 1007.9 hPa | 0 mm | - | 537 W/m² | - |
| 1778012471 | 27.22° C | 33% | 1008.1 hPa | 0 mm | - | 491 W/m² | - |
* Rain latest hour (hover to see other rain measurements)
** Current wind speed in m/s (hover to see current wind gust speed)